EW6762 Weather Reports


time (UTC)temp
C
wind
direction
speed
KPH
gust
KPH
rain 1hr
cm
rain 24hr
cm
rain mn
cm
humidity
%
barometer
mb
20260505195346 29 153 6.4 17.7 0.00 0.00 0.00 46 1016.1
20260505194320 29 139 9.7 17.7 0.00 0.00 0.00 47 1016.4
20260505193318 29 142 11.3 19.3 0.00 0.00 0.00 46 1016.7
20260505192311 29 154 8.0 22.5 0.00 0.00 0.00 47 1016.9
20260505191334 29 155 9.7 25.7 0.00 0.00 0.00 47 1016.8
20260505190328 28 150 8.0 16.1 0.00 0.00 0.00 47 1016.9
20260505185349 28 138 8.0 19.3 0.00 0.00 0.00 47 1017.2
20260505184324 29 219 9.7 17.7 0.00 0.00 0.00 48 1017.3
20260505183324 29 159 14.5 25.7 0.00 0.00 0.00 46 1017.4
20260505182318 28 141 8.0 24.1 0.00 0.00 0.00 48 1017.4
20260505181315 29 211 8.0 20.9 0.00 0.00 0.00 48 1017.5
20260505180334 29 137 9.7 17.7 0.00 0.00 0.00 48 1017.6
20260505175332 29 169 4.8 17.7 0.00 0.00 0.00 47 1017.7
20260505174327 29 178 4.8 12.9 0.00 0.00 0.00 47 1017.8
20260505173323 29 132 9.7 17.7 0.00 0.00 0.00 48 1017.8
20260505172320 29 148 3.2 12.9 0.00 0.00 0.00 49 1017.8
20260505171314 29 257 9.7 17.7 0.00 0.00 0.00 48 1017.9
20260505170335 28 153 6.4 20.9 0.00 0.00 0.00 50 1017.8
20260505165310 28 160 6.4 20.9 0.00 0.00 0.00 50 1018.1
20260505164329 28 125 6.4 19.3 0.00 0.00 0.00 49 1018.2
20260505163317 28 128 6.4 19.3 0.00 0.00 0.00 54 1018.2
20260505162309 27 131 11.3 19.3 0.00 0.00 0.00 54 1018.3
20260505161311 27 207 9.7 17.7 0.00 0.00 0.00 54 1018.5
20260505160322 27 146 6.4 17.7 0.00 0.00 0.00 52 1018.6
20260505153327 26 229 9.7 16.1 0.00 0.00 0.00 54 1018.8
20260505152324 26 206 4.8 16.1 0.00 0.00 0.00 54 1018.8
20260505151334 26 142 8.0 14.5 0.00 0.00 0.00 57 1018.9
20260505150328 25 249 4.8 19.3 0.00 0.00 0.00 58 1018.8
20260505140328 22 213 6.4 16.1 0.00 0.00 0.00 65 1018.8
20260505130310 20 238 4.8 12.9 0.00 0.00 0.00 73 1018.8
20260505124319 18 217 4.8 12.9 0.00 0.00 0.00 75 1018.7
20260505123312 18 134 3.2 14.5 0.00 0.00 0.00 77 1018.7
20260505122313 17 241 4.8 12.9 0.00 0.00 0.00 78 1018.7
20260505121328 17 184 4.8 11.3 0.00 0.00 0.00 79 1018.8
20260505120329 16 227 6.4 12.9 0.00 0.00 0.00 80 1018.7
20260505115321 16 215 3.2 9.7 0.00 0.00 0.00 81 1018.6
20260505114321 15 225 4.8 8.0 0.00 0.00 0.00 81 1018.5
20260505113318 15 207 1.6 9.7 0.00 0.00 0.00 83 1018.5
20260505112336 15 184 1.6 4.8 0.00 0.00 0.00 82 1018.4
20260505111328 14 150 3.2 6.4 0.00 0.00 0.00 83 1018.4
20260505110309 13 142 3.2 4.8 0.00 0.00 0.00 83 1018.2
20260505101324 13 141 1.6 4.8 0.00 0.00 0.00 83 1017.5
20260505100324 13 128 1.6 4.8 0.00 0.00 0.00 83 1017.4
20260505095317 13 153 1.6 4.8 0.00 0.00 0.00 82 1017.4
20260505094311 13 134 1.6 4.8 0.00 0.00 0.00 82 1017.4
20260505093310 13 121 1.6 3.2 0.00 0.00 0.00 81 1017.4
20260505092329 14 126 0.0 4.8 0.00 0.00 0.00 81 1017.4
20260505091322 14 186 1.6 4.8 0.00 0.00 0.00 80 1017.3
20260505090319 14 129 0.0 4.8 0.00 0.00 0.00 80 1017.3
20260505085321 14 157 1.6 4.8 0.00 0.00 0.00 80 1017.2
20260505084315 14 116 0.0 4.8 0.00 0.00 0.00 79 1017.1
20260505083325 15 138 1.6 4.8 0.00 0.00 0.00 78 1017.0
20260505082312 15 155 1.6 4.8 0.00 0.00 0.00 77 1016.9
20260505081349 15 127 1.6 4.8 0.00 0.00 0.00 76 1016.9
20260505080317 16 93 1.6 3.2 0.00 0.00 0.00 75 1016.9
20260505075315 16 91 1.6 4.8 0.00 0.00 0.00 74 1016.9
20260505074325 16 88 3.2 4.8 0.00 0.00 0.00 73 1016.9
20260505073324 16 124 3.2 8.0 0.00 0.00 0.00 72 1016.9
20260505072316 17 130 1.6 11.3 0.00 0.00 0.00 72 1016.8
20260505071312 17 126 4.8 11.3 0.00 0.00 0.00 71 1016.8
20260505070312 17 127 1.6 6.4 0.00 0.00 0.00 71 1016.8
20260505065309 17 159 4.8 16.1 0.00 0.00 0.00 71 1016.8
20260505064311 17 157 3.2 9.7 0.00 0.00 0.00 71 1016.7
20260505063329 17 190 3.2 9.7 0.00 0.00 0.00 71 1016.8
20260505062321 17 130 3.2 11.3 0.00 0.00 0.00 70 1016.8
20260505061318 17 142 3.2 14.5 0.00 0.00 0.00 70 1016.9
20260505060316 17 93 3.2 8.0 0.00 0.00 0.00 69 1017.0
20260505055310 17 135 3.2 11.3 0.00 0.00 0.00 69 1017.0
20260505054331 17 144 4.8 11.3 0.00 0.00 0.00 69 1017.1
20260505053318 18 144 4.8 8.0 0.00 0.00 0.00 68 1017.2
20260505052319 18 182 4.8 9.7 0.00 0.00 0.00 68 1017.2
20260505051312 18 170 3.2 11.3 0.00 0.00 0.00 68 1017.3
20260505050315 18 159 4.8 11.3 0.00 0.00 0.00 67 1017.3
20260505041321 18 192 4.8 11.3 0.00 0.00 0.00 67 1017.3
20260505040313 18 138 11.3 19.3 0.00 0.00 0.00 67 1017.3
20260505035331 18 127 4.8 14.5 0.00 0.00 0.00 67 1017.3
20260505034321 19 190 8.0 17.7 0.00 0.00 0.00 67 1017.3
20260505033345 19 161 6.4 16.1 0.00 0.00 0.00 67 1017.3
20260505032318 19 145 8.0 12.9 0.00 0.00 0.00 66 1017.3
20260505031337 19 131 8.0 19.3 0.00 0.00 0.00 66 1017.3
20260505030313 20 166 6.4 16.1 0.00 0.00 0.00 66 1017.3
20260505025319 20 135 8.0 24.1 0.00 0.00 0.00 65 1017.3
20260505024314 20 126 9.7 17.7 0.00 0.00 0.00 65 1017.3
20260505023316 20 148 8.0 19.3 0.00 0.00 0.00 65 1017.3
20260505022332 20 167 9.7 19.3 0.00 0.00 0.00 64 1017.2
20260505021310 20 148 6.4 17.7 0.00 0.00 0.00 64 1017.2
20260505020327 20 136 6.4 14.5 0.00 0.00 0.00 64 1017.1
20260505015330 20 141 8.0 16.1 0.00 0.00 0.00 63 1017.0
20260505014323 21 175 6.4 19.3 0.00 0.00 0.00 63 1016.9
20260505013320 21 76 6.4 19.3 0.00 0.00 0.00 63 1016.8
20260505012321 21 130 9.7 19.3 0.00 0.00 0.00 63 1016.7
20260505011319 21 184 8.0 17.7 0.00 0.00 0.00 62 1016.7
20260505010315 22 150 9.7 19.3 0.00 0.00 0.00 62 1016.6
20260505005317 22 136 6.4 16.1 0.00 0.00 0.00 61 1016.4
20260505004311 22 141 9.7 17.7 0.00 0.00 0.00 61 1016.2
20260505003334 22 131 9.7 14.5 0.00 0.00 0.00 60 1016.1
20260505002312 23 144 11.3 20.9 0.00 0.00 0.00 59 1016.0
20260505001335 23 132 11.3 19.3 0.00 0.00 0.00 56 1015.8
20260505000351 24 140 11.3 22.5 0.00 0.00 0.00 49 1015.7
20260504235328 25 114 6.4 14.5 0.00 0.00 0.00 43 1015.5
20260504234323 25 146 6.4 17.7 0.00 0.00 0.00 43 1015.4
20260504233327 25 153 6.4 22.5 0.00 0.00 0.00 41 1015.1
20260504232322 26 163 11.3 20.9 0.00 0.00 0.00 40 1015.0
20260504231318 26 93 4.8 20.9 0.00 0.00 0.00 41 1015.0
20260504230318 27 205 6.4 16.1 0.00 0.00 0.00 39 1015.0
20260504225314 27 212 4.8 14.5 0.00 0.00 0.00 38 1014.9
20260504224310 27 178 4.8 12.9 0.00 0.00 0.00 38 1015.0
20260504223313 27 126 8.0 17.7 0.00 0.00 0.00 39 1014.9
20260504222308 28 89 8.0 17.7 0.00 0.00 0.00 37 1014.9
20260504221310 28 153 6.4 16.1 0.00 0.00 0.00 37 1014.9
20260504220325 28 151 6.4 17.7 0.00 0.00 0.00 36 1015.0
20260504215348 28 157 9.7 17.7 0.00 0.00 0.00 35 1015.0
20260504214321 28 165 6.4 20.9 0.00 0.00 0.00 35 1015.1
20260504213320 28 110 8.0 24.1 0.00 0.00 0.00 37 1015.0
20260504212318 28 157 8.0 17.7 0.00 0.00 0.00 37 1015.0
20260504211315 28 142 8.0 17.7 0.00 0.00 0.00 35 1015.0
20260504210315 28 126 9.7 19.3 0.00 0.00 0.00 36 1015.1
20260504205310 29 235 6.4 20.9 0.00 0.00 0.00 36 1015.1
20260504204330 29 115 9.7 19.3 0.00 0.00 0.00 34 1015.1
20260504203320 29 175 6.4 17.7 0.00 0.00 0.00 35 1015.3
20260504202323 29 135 8.0 16.1 0.00 0.00 0.00 35 1015.4
20260504201314 28 205 3.2 12.9 0.00 0.00 0.00 36 1015.5
20260504200310 28 245 9.7 16.1 0.00 0.00 0.00 36 1015.5